Flag for U.S.A. Weather past 2 weeks in Baker Island, U.S.A.

Now
81 °F

Sprinkles. Partly cloudy.


Feels Like: 87 °F
Forecast: 82 / 85 °F
Wind: 10 mph from East

Location: Funafuti

Current Time: Aug 29, 2014 at 9:01:37 PM

Latest Report: Aug 29, 2014 at 8:00 PM


Visibility: N/A

Pressure: 29.77 "Hg

Humidity: 89%

Dew point: 77 °F

Location of Baker IslandLocation

Historic Weather in Baker Island — Graph

°F

Baker Island temperature yesterday

Maximum temperature yesterday: 90 °F (at 11:00 AM)
Minimum temperature yesterday: 79 °F (at 10:00 PM)
Average temperature yesterday: 84 °F

Past Weeks' High & Low Weather Summary

 TemperatureHumidityPressure
High90 °F (Aug 15, 12:00 PM)94% (Aug 18, 2:00 AM)29.95 "Hg (Aug 18, 2:00 AM)
Low75 °F (Aug 25, 2:00 PM)66% (Aug 17, 11:00 AM)29.71 "Hg (Aug 29, 3:00 PM)
Average83 °F81%29.84 "Hg
* Reported Aug 14 8:00 PM — Aug 29 8:00 PM, Baker Island, Weather by CustomWeather, © 2014

Note: Actual official high and low records may vary slightly from our data, if they occured in-between our weather recording intervals... More about our weather records

Advertising

Baker Island weather history for previous 24 hours

 ConditionsComfort  
Time TempWeatherWind HumidityBarometerVisibility
8:00 PM
Aug 29
81 °FSprinkles. Partly cloudy.10 mph89%29.77 "HgN/A
7:00 PM81 °FScattered showers. Overcast.15 mph89%29.77 "HgN/A
6:00 PM82 °FScattered showers. Broken clouds.14 mph84%29.74 "HgN/A
5:00 PM81 °FScattered showers. Broken clouds.12 mph89%29.74 "HgN/A
4:00 PM82 °FScattered showers. More clouds than sun.14 mph84%29.71 "HgN/A
3:00 PM82 °FScattered showers. Broken clouds.15 mph84%29.71 "HgN/A
2:00 PM81 °FSprinkles. More clouds than sun.15 mph89%29.74 "HgN/A
1:00 PM84 °FScattered showers. More clouds than sun.9 mph79%29.74 "HgN/A
12:00 PM84 °FScattered showers. More clouds than sun.10 mph79%29.80 "HgN/A
11:00 AM82 °FScattered showers. More clouds than sun.12 mph84%29.80 "HgN/A
10:00 AM82 °FScattered showers. More clouds than sun.13 mph84%29.83 "HgN/A
9:00 AM81 °FScattered showers. More clouds than sun.6 mph89%29.83 "HgN/A
7:00 AM79 °FScattered showers. More clouds than sun.12 mph89%29.83 "HgN/A
6:00 AM81 °FRain showers. Mostly cloudy.14 mph84%29.80 "HgN/A
4:00 AM81 °FScattered showers. Mostly cloudy.14 mph89%29.74 "HgN/A
3:00 AM81 °FThunderstorms. Partly cloudy.13 mph89%29.77 "HgN/A
2:00 AM82 °FScattered showers. Mostly cloudy.13 mph84%29.77 "HgN/A
1:00 AM82 °FScattered showers. Mostly cloudy.14 mph89%29.80 "HgN/A
12:00 AM82 °FScattered showers. Mostly cloudy.15 mph89%29.80 "HgN/A
11:00 PM
Aug 28
81 °FScattered showers. Mostly cloudy.10 mph84%29.80 "HgN/A
10:00 PM79 °FSprinkles. Mostly cloudy.13 mph89%29.83 "HgN/A
9:00 PM82 °FPassing clouds.12 mph89%29.80 "HgN/A
Weather by CustomWeather, © 2014

See weather overviewHow to use our weather pages